[[{"header":{"parameterUnit":"m.s-1","parameterCategory":1,"la1":30.2991,"la2":30.254,"lo1":-89.0895,"lo2":-89.0444,"dy":0.0017,"dx":0.0017,"nx":28,"ny":28,"refTime":"2023-09-16T03:00:00:Z","depth":0,"parameterNumber":2,"parameterNumberName":"U-component_of_WINDS"},"data":[0,0,0,0,0,0,0,0,0,0,0,0,0,0,0,0,0,0,0,0,0,0,0,0,0,0,0,0,0,0,0,0,0,0,0,0,0,0,0,0,0,0,0,0,0,0,0,0,0,0,0,0,0,0,0,0,0,0,1.5637,1.5637,0,1.5599,1.5598,1.5598,1.5522,1.552,1.5519,1.5517,1.5476,1.5477,1.5477,0,0,0,0,0,0,0,0,0,0,0,0,0,1.5646,1.5646,1.5637,1.5637,1.5637,1.5599,1.5598,1.5598,1.5522,1.552,1.5518,1.5517,1.5476,1.5477,1.5477,0,0,0,0,0,0,0,0,0,0,0,0,0,1.5628,1.5646,1.5638,1.5594,1.559,1.5599,1.5598,1.5598,1.5522,1.552,1.5518,1.5516,1.5476,1.5477,1.5477,1.5525,0,0,1.5478,1.5479,0,0,0,0,0,0,0,0,1.5629,1.5628,1.5601,1.5597,1.5592,1.5563,1.5586,1.5573,1.5523,1.5548,1.5517,1.5515,1.5507,1.5505,1.5502,1.5523,1.5521,1.5478,1.5479,1.5479,1.5479,0,0,0,0,0,0,0,1.5631,1.5629,1.5622,1.5601,1.5596,1.5577,1.5572,1.5583,1.554,1.5546,1.554,1.5537,1.5504,1.5502,1.5501,1.552,1.5478,1.5479,1.5479,1.5479,1.558,1.5583,0,0,0,0,0,0,1.5638,1.5631,1.5623,1.5621,1.5606,1.5578,1.5573,1.5575,1.554,1.5533,1.5539,1.5533,1.5502,1.55,1.5499,1.5554,1.5479,1.5479,1.548,1.5578,1.5581,1.5583,0,0,0,0,0,0,1.5639,1.5638,1.5625,1.5624,1.5621,1.5581,1.5583,1.5575,1.5573,1.5535,1.5527,1.5544,1.55,1.5498,1.5519,1.5551,1.5479,1.548,1.5575,1.5579,1.5582,1.5664,0,0,0,0,0,0,1.5639,1.5639,1.5656,1.5625,1.5622,1.5646,1.5585,1.5576,1.5574,1.5567,1.5538,1.5531,1.5499,1.5519,1.552,1.5551,1.548,1.5572,1.5577,1.5581,1.5658,1.567,1.568,0,0,0,0,0,1.564,1.568,1.5658,1.5657,1.5643,1.5648,1.5646,1.5608,1.5577,1.5594,1.557,1.5532,1.5548,1.5522,1.5522,1.5554,1.557,1.5575,1.5581,1.5653,1.5668,1.568,0,0,0,0,0,0,1.5715,1.5675,1.565,1.5681,1.5669,1.5635,1.5656,1.5624,1.562,1.5613,1.5566,1.556,1.5588,1.5572,1.5544,1.5599,1.5553,1.5559,1.5608,1.5621,1.5632,1.5635,1.5481,0,0,0,0,0,1.5736,1.5744,1.5708,1.5739,1.5735,1.5697,1.5698,1.567,1.5655,1.5649,1.5626,1.5613,1.5615,1.5617,1.5617,1.5656,1.5649,1.5677,1.5688,1.5697,1.5703,1.5725,1.5737,1.5601,1.5601,1.5601,0,0,1.5778,1.5757,1.5764,1.5754,1.5741,1.5751,1.5693,1.5705,1.5712,1.565,1.567,1.5653,1.5635,1.5666,1.5678,1.5654,1.5739,1.5704,1.5712,1.5713,1.5732,1.5745,1.5756,1.5605,1.5604,1.5604,0,0,1.5859,1.5844,1.5869,1.5858,1.584,1.5815,1.5821,1.5793,1.5779,1.5798,1.5753,1.576,1.5764,1.5754,1.575,1.583,1.5795,1.5831,1.5888,1.591,1.592,1.593,1.596,1.5971,1.5837,1.5837,1.5837,0,1.5914,1.5927,1.5886,1.5902,1.59,1.5846,1.5871,1.5862,1.5845,1.5844,1.5817,1.5823,1.5807,1.5836,1.5856,1.5853,1.586,1.5834,1.5922,1.5931,1.5939,1.5968,1.5979,1.5842,1.5841,1.5841,1.584,0,1.5995,1.6005,1.6028,1.6014,1.6013,1.6034,1.5997,1.6002,1.5975,1.5953,1.5974,1.5953,1.5948,1.5953,1.5925,1.5979,1.5964,1.5931,1.5883,1.5958,1.5983,1.5994,1.5848,1.5847,1.5845,1.5844,0,0,1.6122,1.6087,1.6096,1.609,1.6067,1.6074,1.6093,1.6089,1.6095,1.6085,1.61,1.6106,1.6076,1.6071,1.6042,1.6061,1.6128,1.6025,1.6024,1.6046,1.6187,1.6214,1.6227,1.6105,1.6107,1.6108,1.6189,0,1.62,1.6231,1.6196,1.6234,1.6243,1.6193,1.621,1.6198,1.6179,1.6184,1.6162,1.6168,1.6126,1.6123,1.6139,1.6117,1.6156,1.611,1.612,1.612,1.6127,1.624,1.6267,1.6345,1.6199,1.6201,1.6202,0,1.6294,1.629,1.633,1.6306,1.6309,1.6324,1.632,1.6325,1.6311,1.6295,1.6291,1.6257,1.6275,1.6229,1.6253,1.6223,1.6225,1.6215,1.6217,1.6217,1.6166,1.6244,1.6368,1.6381,1.6217,1.6216,1.6215,0,1.6385,1.6389,1.6414,1.641,1.6382,1.6395,1.6384,1.6368,1.6369,1.6364,1.6365,1.6362,1.6361,1.6361,1.6327,1.6297,1.6357,1.6307,1.6345,1.6346,1.636,1.636,1.6488,1.636,1.636,1.636,1.6359,0,1.6475,1.6502,1.6455,1.647,1.6499,1.6459,1.6489,1.6472,1.6459,1.6471,1.6427,1.6439,1.6394,1.6401,1.6375,1.6401,1.64,1.6389,1.6382,1.6393,1.6395,1.6394,1.6389,1.6363,1.6362,1.6361,1.6361,0,1.6581,1.6551,1.6575,1.6548,1.6542,1.6564,1.6541,1.6554,1.6533,1.6548,1.655,1.6516,1.6523,1.6489,1.649,1.6473,1.6511,1.6494,1.6517,1.6512,1.6552,1.655,1.6684,1.6701,1.6562,1.6563,1.6565,0,1.6642,1.6661,1.6637,1.6642,1.6634,1.6642,1.6644,1.6605,1.6609,1.6595,1.6611,1.6614,1.6615,1.6628,1.6604,1.6605,1.6588,1.6636,1.6588,1.66,1.6591,1.6591,1.6593,1.6646,1.6647,1.6649,1.665,0,1.6753,1.6737,1.6741,1.674,1.6743,1.674,1.6734,1.6741,1.67,1.6706,1.6713,1.6714,1.6716,1.672,1.6716,1.6705,1.6672,1.6665,1.6674,1.6687,1.67,1.6695,1.6545,1.6662,1.6661,1.666,1.6659,1.6659,1.6838,1.6854,1.684,1.6846,1.6839,1.6835,1.6847,1.6827,1.6833,1.6832,1.6809,1.6821,1.6808,1.6799,1.6792,1.6801,1.6779,1.6791,1.6795,1.6799,1.6807,1.6698,1.68,1.68,1.6799,1.6799,1.6799,0,1.6948,1.6937,1.6943,1.6938,1.6943,1.6911,1.6904,1.6911,1.6922,1.6913,1.6915,1.6925,1.6929,1.6906,1.6908,1.692,1.6904,1.6922,1.6921,1.6919,1.6826,1.6819,1.6934,1.6934,1.6934,1.6934,1.6934,1.6934,1.7006,1.7032,1.7015,1.7038,1.7026,1.7038,1.7037,1.7034,1.7027,1.7039,1.7043,1.7028,1.7014,1.7015,1.7018,1.7011,1.7014,1.7037,1.7025,1.6938,1.6925,1.6913,1.6906,1.7038,1.7038,1.7118,1.7119,1.7119]},{"header":{"parameterUnit":"m.s-1","parameterCategory":1,"la1":30.2991,"la2":30.254,"lo1":-89.0895,"lo2":-89.0444,"dy":0.0017,"dx":0.0017,"nx":28,"ny":28,"refTime":"2023-09-16T03:00:00:Z","depth":0,"parameterNumber":3,"parameterNumberName":"V-component_of_WINDS"},"data":[0,0,0,0,0,0,0,0,0,0,0,0,0,0,0,0,0,0,0,0,0,0,0,0,0,0,0,0,0,0,0,0,0,0,0,0,0,0,0,0,0,0,0,0,0,0,0,0,0,0,0,0,0,0,0,0,0,0,-2.165,-2.165,0,-2.1634,-2.1634,-2.1633,-2.1593,-2.1592,-2.1591,-2.159,-2.1573,-2.1573,-2.1574,0,0,0,0,0,0,0,0,0,0,0,0,0,-2.1648,-2.1648,-2.165,-2.165,-2.165,-2.1634,-2.1634,-2.1633,-2.1593,-2.1592,-2.1591,-2.159,-2.1573,-2.1573,-2.1574,0,0,0,0,0,0,0,0,0,0,0,0,0,-2.1642,-2.1648,-2.165,-2.1628,-2.1626,-2.1634,-2.1634,-2.1633,-2.1593,-2.1592,-2.1591,-2.1589,-2.1573,-2.1573,-2.1574,-2.1603,0,0,-2.1575,-2.1576,0,0,0,0,0,0,0,0,-2.1642,-2.1642,-2.1631,-2.1629,-2.1627,-2.1614,-2.1626,-2.1623,-2.1593,-2.1606,-2.159,-2.1589,-2.1588,-2.1587,-2.1587,-2.1602,-2.1601,-2.1575,-2.1576,-2.1576,-2.1576,0,0,0,0,0,0,0,-2.1643,-2.1643,-2.1644,-2.1631,-2.1629,-2.1619,-2.1617,-2.1626,-2.1604,-2.1604,-2.1601,-2.16,-2.1586,-2.1586,-2.1586,-2.1601,-2.1575,-2.1576,-2.1576,-2.1576,-2.1639,-2.164,0,0,0,0,0,0,-2.1646,-2.1643,-2.1644,-2.1643,-2.1632,-2.162,-2.1617,-2.162,-2.1604,-2.16,-2.1601,-2.1598,-2.1586,-2.1585,-2.1585,-2.1618,-2.1576,-2.1576,-2.1577,-2.1638,-2.1639,-2.1641,0,0,0,0,0,0,-2.1647,-2.1647,-2.1645,-2.1642,-2.1641,-2.1621,-2.1624,-2.162,-2.162,-2.1601,-2.1597,-2.1605,-2.1585,-2.1584,-2.1599,-2.1617,-2.1577,-2.1577,-2.1636,-2.1638,-2.164,-2.1683,0,0,0,0,0,0,-2.1647,-2.1647,-2.1658,-2.1643,-2.1642,-2.1659,-2.1625,-2.162,-2.1621,-2.1617,-2.1604,-2.16,-2.1584,-2.1598,-2.1599,-2.1617,-2.1578,-2.1634,-2.1637,-2.164,-2.168,-2.1687,-2.1692,0,0,0,0,0,-2.1647,-2.167,-2.1658,-2.1659,-2.1654,-2.166,-2.1659,-2.164,-2.1622,-2.1633,-2.1621,-2.1601,-2.1615,-2.16,-2.1601,-2.1619,-2.1633,-2.1636,-2.1639,-2.1677,-2.1685,-2.1692,0,0,0,0,0,0,-2.1687,-2.1668,-2.1654,-2.1674,-2.1669,-2.1653,-2.1665,-2.1648,-2.1648,-2.1644,-2.162,-2.1618,-2.1635,-2.1628,-2.1612,-2.1646,-2.1621,-2.1624,-2.1649,-2.1657,-2.1663,-2.1664,-2.1578,0,0,0,0,0,-2.1698,-2.1704,-2.1687,-2.1706,-2.1704,-2.1686,-2.1687,-2.1673,-2.1666,-2.1664,-2.1653,-2.1648,-2.1651,-2.1654,-2.1656,-2.1679,-2.1676,-2.1692,-2.1698,-2.1703,-2.1706,-2.1719,-2.1726,-2.1651,-2.1651,-2.1651,0,0,-2.1721,-2.1712,-2.1717,-2.1714,-2.1708,-2.1715,-2.1684,-2.1692,-2.1697,-2.1665,-2.1678,-2.167,-2.1663,-2.1682,-2.169,-2.1677,-2.1726,-2.1707,-2.1711,-2.1711,-2.1723,-2.173,-2.1736,-2.1653,-2.1653,-2.1652,0,0,-2.1767,-2.176,-2.1775,-2.1771,-2.1763,-2.175,-2.1754,-2.1741,-2.1735,-2.1747,-2.1723,-2.1729,-2.1735,-2.1731,-2.173,-2.1775,-2.1757,-2.1777,-2.1807,-2.182,-2.1826,-2.1831,-2.1847,-2.1853,-2.178,-2.178,-2.178,0,-2.1796,-2.1806,-2.1785,-2.1795,-2.1795,-2.1767,-2.1782,-2.1779,-2.1772,-2.1772,-2.1758,-2.1766,-2.1759,-2.1777,-2.1788,-2.1788,-2.1792,-2.1777,-2.1827,-2.1831,-2.1836,-2.1851,-2.1857,-2.1782,-2.1782,-2.1782,-2.1782,0,-2.1843,-2.185,-2.1863,-2.1857,-2.1858,-2.1871,-2.1853,-2.1857,-2.1843,-2.1832,-2.1846,-2.1837,-2.1836,-2.184,-2.1826,-2.1856,-2.1848,-2.1831,-2.1805,-2.1846,-2.186,-2.1865,-2.1786,-2.1785,-2.1784,-2.1784,0,0,-2.1912,-2.1896,-2.1901,-2.1898,-2.1888,-2.1893,-2.1905,-2.1905,-2.1909,-2.1906,-2.1915,-2.1921,-2.1905,-2.1904,-2.189,-2.1901,-2.1938,-2.1882,-2.1881,-2.1892,-2.1971,-2.1984,-2.1991,-2.1926,-2.1927,-2.1928,-2.1971,0,-2.1954,-2.1973,-2.1956,-2.1978,-2.1985,-2.1959,-2.197,-2.1965,-2.1956,-2.196,-2.195,-2.1954,-2.1933,-2.1932,-2.1942,-2.1931,-2.1953,-2.1928,-2.1934,-2.1935,-2.1936,-2.1998,-2.2011,-2.2053,-2.1977,-2.1977,-2.1978,0,-2.2006,-2.2005,-2.2029,-2.2018,-2.202,-2.203,-2.2029,-2.2033,-2.2028,-2.202,-2.2019,-2.2002,-2.2014,-2.1989,-2.2005,-2.1988,-2.199,-2.1985,-2.1986,-2.1986,-2.1958,-2.1999,-2.2066,-2.2072,-2.1986,-2.1986,-2.1985,0,-2.2054,-2.2059,-2.2074,-2.2072,-2.206,-2.2068,-2.2063,-2.2056,-2.2058,-2.2057,-2.2058,-2.2059,-2.2059,-2.206,-2.2044,-2.2028,-2.2062,-2.2036,-2.2056,-2.2056,-2.2063,-2.2063,-2.2131,-2.2066,-2.2066,-2.2066,-2.2065,0,-2.2103,-2.2118,-2.2095,-2.2104,-2.2121,-2.2101,-2.2118,-2.2111,-2.2105,-2.2113,-2.2091,-2.2098,-2.2077,-2.2082,-2.207,-2.2085,-2.2085,-2.2079,-2.2076,-2.2081,-2.2082,-2.2081,-2.2078,-2.2067,-2.2067,-2.2067,-2.2066,0,-2.2159,-2.2144,-2.2158,-2.2146,-2.2143,-2.2156,-2.2146,-2.2154,-2.2144,-2.2153,-2.2154,-2.2138,-2.2144,-2.2128,-2.2131,-2.2122,-2.2144,-2.2136,-2.2146,-2.2143,-2.2164,-2.2162,-2.2234,-2.2243,-2.2172,-2.2173,-2.2173,0,-2.219,-2.2202,-2.2191,-2.2194,-2.2191,-2.2197,-2.2198,-2.218,-2.2182,-2.2178,-2.2186,-2.219,-2.2192,-2.2202,-2.219,-2.2193,-2.2184,-2.2209,-2.2184,-2.2189,-2.2184,-2.2183,-2.2185,-2.2214,-2.2215,-2.2216,-2.2216,0,-2.2249,-2.2241,-2.2244,-2.2245,-2.2248,-2.2248,-2.2246,-2.225,-2.223,-2.2235,-2.224,-2.2242,-2.2245,-2.2249,-2.2249,-2.2244,-2.2227,-2.2224,-2.2229,-2.2234,-2.2239,-2.2237,-2.216,-2.2223,-2.2222,-2.2221,-2.2221,-2.2221,-2.2293,-2.2302,-2.2296,-2.2301,-2.2298,-2.2297,-2.2304,-2.2295,-2.2299,-2.23,-2.2289,-2.2297,-2.2292,-2.229,-2.2288,-2.2294,-2.2282,-2.2289,-2.2291,-2.2293,-2.2296,-2.2239,-2.2294,-2.2294,-2.2293,-2.2293,-2.2293,0,-2.235,-2.2345,-2.2349,-2.2348,-2.2352,-2.2336,-2.2334,-2.2338,-2.2345,-2.2342,-2.2345,-2.2351,-2.2355,-2.2345,-2.2347,-2.2354,-2.2346,-2.2355,-2.2354,-2.2354,-2.2306,-2.2302,-2.2362,-2.2362,-2.2362,-2.2362,-2.2362,-2.2362,-2.238,-2.2394,-2.2386,-2.2399,-2.2394,-2.2402,-2.2402,-2.2402,-2.2399,-2.2407,-2.2411,-2.2404,-2.2398,-2.24,-2.2403,-2.24,-2.2402,-2.2414,-2.2408,-2.2364,-2.2357,-2.235,-2.2346,-2.2414,-2.2414,-2.2455,-2.2455,-2.2455]}]]